Powrót do katalogu

SSU 2

AktywnyMilitariaLEO
NORAD 8836·PAYLOAD·🇺🇸 United States

Wystrzelony Apr 30, 1976 z Vandenberg Space Force Base

Loading…

Następne Przeloty (najbliższe 24 godziny)

TLE

ŚwieżeSource: Space-Track

Epoka: Sep 14, 2026, 14:14 UTC

1 08836U 76038D   26257.59317013  .00000079  00000-0  98278-4 0  9994
2 08836  63.3645  19.0481 0372640 181.3801 178.6253 13.82964746363645

Śledź SSU 2 w czasie rzeczywistym z AllMySat

Download on the App Store